CZ-6A DEB, 54278

Orbit data source: Space-Track

CZ-6A DEB, 54278 is space debris in SSO originally from a launch on Fri, 11 Nov 2022 UTC launched from the Taiyaun Space Center, China (TSC). Debris objects in space refer to the collection of defunct objects orbiting the Earth. Examples of debris include non-operational satellites, rocket bodies, and fragments generated from explosions, collisions, or faulty payload assembly.

Loading next visibility...
Identifier
54278, 2022-151V
Orbit
SSO
Country
Flag of CNCN / PRC
Related business
Manufacturer
SAST
Mission
Spacecraft
Bus & Motor
Unknown
Mass
Unknown
Launch date (UTC)
2022-11-11 (4 years ago)
Launch vehicle
Unknown
Launch site
Taiyaun Space Center, China (TSC)
Object type
Payload
Rocket body
Debris
Shape & HBR
Unknown shape, 0.1 m
Radar Cross Section
Small (<0.1 m²)

Expand to show TLE details & history
Last TLE update: 13 hours ago

TLE from 13 hours ago
0 CZ-6A DEB
1 54278U 22151V   26235.95672416  .00004877  00000-0  16679-2 0  9992
2 54278  98.6671 232.3497 0105702 322.6318  36.7547 14.33640904195084
Epoch: 2026-08-23T22:57Z
TLE epoch observation values (Epoch: 2026-08-23T22:57:40.967Z)
Latitude
-0°
Longitude
-84.31633°
Altitude
722.181 km
Speed
7.526 km/s
True Right ascension
15h 29m 23s
True Declination
0° 00' 00"
Sunlit
Object was in daylight at epoch
Visualization orbit readout
Latitude
Unknown
Longitude
Unknown
Altitude
Unknown
Speed
Unknown
Apparent Right ascension
Unknown
Apparent Declination
Unknown
Sunlit
N/A
Visualization observer readout
Local Sidereal Time
02:51:33
Azimuth
Unknown
Elevation
Unknown
Doppler factor
Unknown
Orbital elements
Apogee altitude
852.353 km
Perigee altitude
701.096 km
Semi-major axis
7,154.861 km
Eccentricity
0.01057
Inclination
98.6671°
RAAN
232.3497°
Arg. of periapsis
322.6318°
True anomaly
37.48724°
Mean anomaly
36.7547°
Eccentric anomaly
37.12019°
Mean motion
3.58626 °/min
Orbital period
100.38 mins
BSTAR
0.0016679
Loading maneuver chart data...
Computing Atmospheric mass density...
Loading historical data...
Loading historical data...
Loading historical data...
Loading historical data...
Loading historical data...
Loading historical data...
Loading historical data...

Documentation

Showing up to 5 results
|